Location: Madden
(51.3728°N, 114.3297°W)
Time: 13:20:46
(UTC+00:00)

SEEDS - Visible Passes

Search period start: 11 February 2026 00:00
Search period end: 21 February 2026 00:00
Orbit: 479 x 486 km, 97.7° (Epoch: 10 February)

Date Brightness Start Highest point End Pass type
(mag) Time Alt. Az. Time Alt. Az. Time Alt. Az.
11 Feb ? 11:52:15 10° ENE 11:54:12 14° E 11:56:09 10° ESE visible
11 Feb ? 13:24:23 10° N 13:27:54 55° WNW 13:31:25 10° SSW visible
12 Feb ? 12:59:10 10° NNE 13:02:46 75° ESE 13:06:21 10° S visible
13 Feb ? 12:34:08 10° NNE 12:37:31 38° E 12:40:52 10° SSE visible
13 Feb ? 14:07:57 10° NNW 14:10:40 21° WNW 14:13:24 10° WSW visible
14 Feb ? 12:09:22 10° NE 12:12:08 21° E 12:14:53 10° SE visible
14 Feb ? 13:42:17 10° N 13:45:36 36° WNW 13:48:54 10° SW visible
15 Feb ? 11:45:23 10° ENE 11:46:38 11° E 11:47:52 10° ESE visible
15 Feb ? 13:16:51 10° N 13:20:25 69° WNW 13:23:58 10° SSW visible
16 Feb ? 12:51:34 10° NNE 12:55:07 59° ESE 12:58:39 10° S visible
17 Feb ? 12:26:28 10° NNE 12:29:41 30° E 12:32:53 10° SSE visible
17 Feb ? 13:59:58 10° N 14:02:56 25° WNW 14:05:55 10° WSW visible
18 Feb ? 12:01:43 10° NE 12:04:08 17° E 12:06:32 10° SE visible
18 Feb ? 13:34:16 10° N 13:37:42 44° WNW 13:41:08 10° SW visible
19 Feb ? 13:08:44 10° NNE 13:12:21 88° WNW 13:15:56 10° SSW visible
20 Feb ? 12:43:23 10° NNE 12:46:52 46° E 12:50:19 10° S visible
